Погода в Кислокане

Погода в Кислокане : погода сейчас, прогноз погоды и архив. Всё, что Вы хотите узнать о погоде в Кислокане!

Поиск расширенной информации на нашем сайте:

Другие новости

Новости СМИ2

Главная страница сайта

Новости сайта

02.10.2013

Напоминаем, что на нашем новом сайте вы можете получить высокодетализированные прогнозы погоды по пунктам России, СНГ и мира (включающие важные для авиации метеовеличины, такие как направление и скорость ветра, видимость, явления погоды, количество и форма облачности, нижняя и верхняя граница облачности), а также ознакомиться с разнообразными материалами по авиационной метеорологии и подборкой полезных ссылок на эту тему.

Сайт Метеоцентр.Азия посвящён разработке технологий оптимизации авиаметеорологического обслуживания, включая проектирование и перспективное создание нескольких автоматизированных авиаметеорологических систем:
- система выпуска высокодетальных прогностических карт явлений погоды для нижнего воздушного пространства по России и ближнему зарубежью;
- система верификации прогнозов TAF (выпускаемых синоптиками официальных АМСГ РФ и ближнего зарубежья) и AUTOTAF (выпускаемых сайтом Метеоцентр.Азия) - выявление ошибок, онлайн-сопоставление с фактической погодой METAR, автоматическое внесение коррективов в прогнозы при резком отклонении фактической погоды от прогноза, подсчёт оправдываемости прогнозов по элементам и в целом;
- система обработки, анализа и отображения авиаметеорологической информации для применения провайдерами метеорологической информации.

Рекомендуем: Подробности печать на картонных коробках тут.

Погода в Кислокане - сегодня

Время (UTC), дата Ветер
(°,м/с) 
Видим.   Явления Облачность Т
(°С)
Тd
(°С)
f(%) Тe
(°С)
Pmin
(гПа)
dP
(гПа)
Po
(мм)
O2
(г/м3)
Тmin Tmax R s Состояние
почвы
15 20.03.17 070 (В) н/о    ясно 
-14.4 -15.7 90 -14  1034.9  -0.1  755  322           
18 20.03.17 140 (ЮВ) н/о    ясно 
-18.3 -19.5 90 -19  1035.3  755  328           
21 20.03.17 тихо ()   н/о    ясно 
-21.3 -23.2 85 -21  1035.5  -0.1  755  332           
00 21.03.17 тихо ()   4000 м  слаб. снег  10/0 верхняя 
[Cs]
-20.2 -21.4 90 -20  1036  0.6  755  330  -23    0.0  37  равномерный
сухой снег
100% 
03 21.03.17 240 (ЮЗ) 20000 м  {снег}  10/4 1000 м средняя, верхняя 
[Sc|Ac trans|Ci sp]
-14.7 -16.7 85 -15  1035.3  -0.2  755  323           
06 21.03.17 070 (В) 20000 м  {снег}  1/1 1000 м 
[Cu hum]
-3.2 -9.1 64 -3  1031.9  -2.1  754  308           
09 21.03.17 220 (ЮЗ) 20000 м    8/4 1000 м средняя, верхняя 
[Cu Sc|Ac trans|Ci sp]
+1.9 -5.7 57 +1  1031.1  -0.3  753  302           
12 21.03.17 240 (ЮЗ) н/о    8/8 1000 м 
[Sc]
-4 -9.8 64 -4  1030  -1.7  752  309    +2.6  0.0     
15 21.03.17 230 (ЮЗ) н/о    3/3 1000 м 
[Sc]
-10.2 -12.2 85 -10  1029.5  -1  751  316           
18 21.03.17 тихо ()   н/о    ясно 
-13.1 -13.7 95 -13  1029.1  -0.7  751  319           
21 21.03.17 тихо ()   н/о    3/3 1000 м 
[Sc]
-10.6 -11.2 95 -11  1028.5  -0.3  751  316           
00 22.03.17 тихо ()   20000 м    10/8 1000 м верхняя 
[Sc|Ci sp]
-13.6 -14.9 90 -14  1029.1  0.3  751  320  -16.6      37  равномерный
сухой снег
100% 
03 22.03.17 140 (ЮВ) 20000 м    10/4 1000 м верхняя 
[Sc|Ci sp]
-9 -11 85 -9  1028.9  0.2  751  314           
06 22.03.17 200 (Ю) 20000 м    8/3 1000 м верхняя 
[Sc|Ci sp]
+2.9 -5.9 52 +4  1026.9  -0.8  750  300           
09 22.03.17 060 (СВ) 20000 м    10/3 600 м верхняя 
[Cu Sc|Ci sp]
+3.2 -8.1 43 +3  1026.6  -0.2  750  300           
12 22.03.17 040 (СВ) н/о    8/4 1000 м верхняя 
[Sc|Ci sp]
-5.2 -11.6 61 -5  1027.7  0.2  750  309    +4.4       
15 22.03.17 010 (С) н/о    1/1 1000 м 
[Sc]
-12.9 -14.9 85 -13  1028.5  750  319           
18 22.03.17 тихо ()   н/о    ясно 
-14.7 -16 90 -15  1028.4  -0.3  750  321           
21 22.03.17 тихо ()   н/о    ясно 
-19.7 -20.9 90 -20  1028.8  -0.2  750  327           
00 23.03.17 тихо ()   20000 м    3/0 верхняя 
[Ci fib]
-20.4 -22.3 85 -20  1028.7  -0.1  750  328  -21.5      36  равномерный
сухой снег
100% 
03 23.03.17 250 (З) 20000 м    10/0 верхняя 
[Ci sp]
-7.5 -12.9 65 -7  1026.3  -1  749  312           
06 23.03.17 тихо ()   20000 м    10/0 верхняя 
[Ci sp]
+1.8 -9.5 43 +2  1023.3  -1.9  748  300           
09 23.03.17 300 (СЗ) 20000 м    10/4 1000 м верхняя 
[Sc|Ci sp]
+3.1 -10.8 35 +2  1021.7  -1.5  747  298           
12 23.03.17 310 (СЗ) н/о    10/10 1000 м 
[Sc]
+1.4 -10.7 40 +1  1021.1  -0.7  746  300    +4.1       
15 23.03.17 290 (З) н/о  {снег}  10/0 средняя 
[As op]
-2 -6.6 71 -1  1022  0.5  746  304           
Время (UTC), дата Ветер
(°,м/с) 
Видим.   Явления Облачность Т
(°С)
Тd
(°С)
f(%) Тe
(°С)
Pmin
(гПа)
dP
(гПа)
Po
(мм)
O2
(г/м3)
Тmin Tmax R s Состояние
почвы

Для получения пояснительной информации подведите курсор к названию столбца.

ПОГОДА в Кислокане - архив

Всё, что Вы хотите узнать о погоде в Кислокане - удобно и подробно!

Выберите нужную дату (начиная с 1 января 2015* года) и нажмите кнопку "Найти".
Будут отображены архивные сводки погоды по пункту Кислокан, начиная с указанной даты.


Отображать данные в формате CSV (для использования в таблицах Excel)


Внимание! Наш архив погоды предназначен исключительно для личного некоммерческого использования в познавательных целях. Если Вам необходимы официальные справки о состоянии погоды (для производственных, юридических, коммерческих и т.п. целей), обращайтесь в органы Росгидромета.

*Примечание: данная дата относится к архиву по метеостанциям СССР (Россия, СНГ, Балтия).
Архив по метеостанциям Зарубежной Европы и Азии (кроме Китая) хранится 10 дней, по другим регионам земного шара (Китай, Африка, Америка, Австралия, Океания) - 1 день.

Кислокан - район местоположения метеостанции


Название, широта, долгота, высота метеостанции:
Кислокан 63.6°ш. 104°д. 209 м над ур. моря [Российская Федерация]

Дополнительная информация

В oтличие oт бoльшинства пoгoдных сайтoв мы публикуем пoдрoбную метеoинфoрмацию в детальнoм прoфессиoнальнoм фoрмате.

Характеристики температуры и влажнoсти вoздуха измеряются на высoте 2 м в тени вдали oт зданий и деревьев.
Скoрoсть ветра измеряется на высoте 10 м (на урoвне рoста челoвека скoрoсть ветра ниже в 1.5-2 раза). Если метеoстанция нахoдится в гoрoде или в лесу, тo скoрoсть ветра занижена на 2-4 м/с пo сравнению с oткрытым местoм. Скoрoсть ветра над акватoриями крупных рек и oзёр, а также на вершинах хoлмoв на 2-5 м/с выше, чем в oбычных услoвиях.
Атмoсфернoе давление в разных тoчках местнoсти мoжет значительнo oтличаться oт давления на метеoстанции, в зависимoсти oт услoвий рельефа (при пoдъёме на 10 м давление пoнижается примернo на 1 мм рт.ст.).